Cloud_Cover
9 63 94 100 100 100 83 15 15 0 4 47 100 100 99 96 96 69 64 59 46 34 5 51 52 64 65 74 90 38 5 5 88 25 5 1 0 3 2 2 0 0 1 2 0
0 2 11 77 8 64 53 55 77 11 5 3 56 100 100 100 100 95 82 100 100 78 90 100 100 100 100 98 74 68 34 97 99 74 24 5 4 5 5 99 39 0 5 6 0
5 4 0 0 0 0 2 5 5 5 7 4 6 80 98 100 100 100 98 100 100 100 100 100 100 100 100 100 100 99 36 100 100 100 100 100 99 8 5 87 58 5 5 5 0
5 5 0 5 3 0 0 0 0 6 5 60 16 12 98 100 66 100 100 100 100 100 100 100 100 100 100 100 100 36 100 100 100 100 100 100 98 100 33 100 100 100 100 16 1
5 1 7 5 0 3 3 1 1 1 4 4 26 77 92 71 76 39 100 100 100 96 100 62 100 100 100 100 100 100 100 100 100 100 99 100 100 100 77 100 100 96 98 96 5
5 5 4 4 5 4 5 0 1 0 0 0 44 70 5 81 100 100 97 35 38 28 35 43 72 18 28 57 100 100 100 100 100 100 100 100 100 98 100 100 38 100 100 98 21
16 5 5 5 18 69 5 6 5 5 0 0 14 15 11 86 7 100 100 100 94 10 21 5 5 28 32 12 4 1 1 6 66 100 100 100 100 100 100 100 100 100 100 92 16
82 58 34 9 57 23 22 5 73 17 29 5 14 10 5 65 99 68 40 96 100 100 100 97 51 4 9 5 5 5 5 23 73 100 100 100 98 100 100 100 100 100 99 92 100
64 20 5 5 15 5 44 43 20 5 0 4 4 5 5 58 49 98 100 100 100 100 100 100 94 35 5 5 6 8 96 90 38 100 84 55 100 100 100 100 100 100 100 100 100
100 73 5 5 5 11 13 4 0 1 0 3 0 19 3 1 7 56 86 100 100 100 100 100 100 97 61 54 45 100 100 44 6 24 9 5 32 48 100 100 100 100 100 100 100
95 45 20 4 5 5 5 1 5 2 5 0 0 0 5 85 32 100 100 100 100 100 100 100 90 21 100 100 100 100 44 5 5 55 73 66 32 5 58 100 100 100 100 100 58
5 5 2 5 8 5 4 5 45 9 86 24 5 4 5 8 14 95 100 100 100 100 100 100 100 86 100 100 99 100 100 97 39 98 70 52 73 5 89 90 100 100 100 100 13
5 24 44 100 10 12 11 64 98 100 100 67 70 2 1 1 12 80 100 100 100 100 100 99 100 100 100 100 100 100 100 100 100 100 94 12 12 5 96 100 100 100 100 100 11
100 99 100 29 23 5 4 5 5 1 0 0 0 1 0 0 0 2 4 25 96 100 100 69 96 100 100 100 100 100 100 100 100 100 68 4 5 42 100 100 100 100 100 98 13
100 85 9 100 98 13 8 5 5 0 0 0 5 74 99 74 49 2 2 5 56 91 100 38 85 100 100 99 100 100 100 100 96 25 94 18 3 95 100 100 100 100 100 100 100
100 74 5 36 97 65 27 6 5 5 5 4 5 5 5 18 39 40 36 7 28 66 100 63 100 100 100 100 100 100 100 100 100 100 5 78 12 10 68 100 100 100 100 69 4
98 10 5 0 4 76 95 14 5 5 1 0 0 0 0 3 5 0 17 99 45 30 100 100 100 100 100 100 100 100 100 100 100 62 19 79 60 87 100 100 100 100 100 22 78
78 5 4 4 15 98 100 76 5 0 0 0 0 0 0 0 0 0 0 8 84 35 55 100 100 100 100 100 100 100 100 100 100 100 100 100 95 41 97 100 100 100 100 100 100
5 4 5 11 6 5 5 0 0 0 1 2 0 0 0 0 0 0 0 0 40 70 52 40 100 100 100 100 100 100 99 98 100 100 66 92 94 100 100 100 100 100 100 98 100
5 5 6 5 4 0 3 0 0 1 1 2 3 0 5 1 0 0 0 0 0 55 100 54 33 100 100 100 100 100 100 100 100 100 44 62 79 100 100 100 100 100 100 100 100
5 5 5 5 1 5 7 4 1 0 5 5 5 14 5 22 4 5 0 0 0 1 100 87 79 94 100 100 100 100 100 100 100 100 94 23 97 99 100 76 81 100 41 5 5
5 5 5 0 11 23 24 5 5 0 0 1 5 6 22 10 39 11 1 0 0 0 0 42 93 100 100 100 100 100 100 100 100 100 99 10 36 100 84 67 61 56 9 5 6
56 6 1 0 5 5 5 5 4 13 5 5 5 5 5 30 87 5 4 3 5 4 96 5 59 46 100 100 100 100 100 100 100 100 100 99 100 100 90 6 15 30 9 29 100
12 8 4 5 5 43 70 5 5 1 0 0 5 5 25 59 49 46 5 0 5 5 4 4 15 100 100 100 100 100 100 98 100 91 75 10 32 8 11 5 72 100 100 100 100
53 12 34 61 6 5 5 5 5 5 1 26 24 98 100 99 42 86 22 5 0 60 5 1 2 38 100 100 100 100 92 48 24 14 29 5 1 5 5 5 36 88 14 6 47
35 9 15 5 5 5 5 5 5 14 98 25 98 100 100 100 100 100 100 28 5 62 17 57 2 0 18 100 100 100 100 100 88 100 3 0 0 3 0 1 5 5 0 5 31
55 8 5 5 5 9 6 5 14 99 22 50 100 100 100 89 61 73 100 61 5 5 5 6 6 4 1 79 100 52 100 91 45 25 59 2 0 0 0 0 0 5 8 99 19